DateTime,F1_A11,F1_S11,BsB_S11,BsG_S11,BsR_S11,BbsB_S11,BbsG_S11,BbsR_S11,BaB_A11,BaG_A11,BaR_A11,T_S11,U_S11,P_S11,T1_A11
2016-07-31T00:00:00Z,0000380,21000600,,,,,,,,,,27.0,00.8,0677.8,34.7
2016-07-31T00:01:00Z,0000380,21000600,,,,,,,,,,27.0,00.8,0677.8,34.7
2016-07-31T00:02:00Z,0000380,21000600,,,,,,,,,,27.0,00.8,0677.8,34.7
2016-07-31T00:03:00Z,0000380,61000600,,,,,,,,,,27.1,00.9,0677.8,34.7
2016-07-31T00:04:00Z,0000380,41000600,-000.23,-000.02,-000.21,-000.20,-000.12,-000.14,0000.11,0000.02,0000.23,27.2,00.7,0678.7,34.7
2016-07-31T00:05:00Z,0000380,01000600,0000.25,-000.39,-000.48,0000.70,-000.14,-000.22,-000.11,-000.21,-000.31,27.2,00.7,0678.8,34.7
2016-07-31T00:06:00Z,0000380,01000600,-000.04,-000.14,-000.07,-000.06,0000.09,0000.39,0000.11,0000.17,0000.30,27.2,00.7,0678.8,34.7
2016-07-31T00:07:00Z,0000380,01000600,-000.22,0000.05,-000.12,-000.25,-000.45,0000.19,-000.07,-000.15,-000.14,27.2,00.6,0678.8,34.7
2016-07-31T00:08:00Z,0000380,01000600,0000.34,-000.02,-000.33,0000.08,-000.45,0000.09,0000.02,0000.15,0000.18,27.1,00.6,0678.8,34.7
2016-07-31T00:09:00Z,0000380,01000600,0000.23,-000.37,0000.09,0000.58,-000.03,0000.19,0000.20,-000.11,-000.05,27.2,00.6,0678.8,34.7
2016-07-31T00:10:00Z,0000380,01000600,-001.02,-000.19,0000.07,0000.05,0000.25,-000.13,-000.05,0000.19,0000.01,27.2,00.7,0678.8,34.7
2016-07-31T00:11:00Z,0000380,01000600,0000.09,-000.12,-000.33,-000.08,-000.03,-000.44,-000.00,0000.09,-000.06,27.1,00.7,0678.8,34.7
2016-07-31T00:12:00Z,0000380,01000600,-000.68,0000.07,-000.14,0000.00,-000.23,0000.02,0000.07,-000.10,-000.01,27.1,00.8,0678.8,34.7
2016-07-31T00:13:00Z,0000380,01000600,-001.96,-000.74,-000.10,0000.16,-000.51,0000.03,-000.07,0000.11,0000.19,27.2,00.8,0678.8,34.7
2016-07-31T00:14:00Z,0000380,01000600,0000.43,0000.55,-000.29,0000.11,-000.25,-000.22,0000.09,0000.01,0000.03,27.1,00.8,0678.8,34.7
2016-07-31T00:15:00Z,0000380,01000600,0000.39,-000.18,-000.64,-000.64,-000.33,-000.08,0000.08,-000.00,-000.11,27.1,00.8,0678.8,34.7
2016-07-31T00:16:00Z,0000380,01000600,-000.25,-000.05,-000.57,-000.25,-000.06,-000.08,-000.10,-000.05,-000.11,27.1,00.8,0678.8,34.7
2016-07-31T00:17:00Z,0000380,01000600,0000.07,0000.37,-000.28,0000.17,-000.11,0000.12,0000.05,-000.18,0000.07,27.1,00.7,0678.8,34.7
2016-07-31T00:18:00Z,0000380,01000600,-000.39,-000.28,0000.14,0000.23,-000.12,0000.11,-000.13,0000.15,0000.20,27.1,00.7,0678.8,34.7
2016-07-31T00:19:00Z,0000380,01000600,-000.77,0000.16,0000.34,-000.37,-000.19,0000.03,0000.02,-000.02,-000.11,27.1,00.7,0678.8,34.7
2016-07-31T00:20:00Z,0000380,01000600,0000.34,-000.07,-000.17,-000.20,-000.26,0000.09,-000.06,-000.15,-000.07,27.1,00.6,0678.8,34.7
2016-07-31T00:21:00Z,0000380,01000600,-000.63,0000.11,0000.09,0000.25,0000.06,-000.20,0000.25,0000.15,0000.10,27.1,00.6,0678.8,34.7
2016-07-31T00:22:00Z,0000380,01000600,0000.72,-000.58,-000.21,0000.73,0000.14,-000.17,-000.24,-000.01,-000.02,27.1,00.5,0678.8,34.7
2016-07-31T00:23:00Z,0000380,01000600,0000.04,-000.60,-000.12,-000.09,-000.22,0000.03,0000.18,0000.05,-000.01,27.1,00.6,0678.8,34.7
2016-07-31T00:24:00Z,0000380,01000600,0000.50,0000.35,-000.09,0000.19,-000.22,-000.20,-000.03,0000.02,0000.26,27.1,00.7,0678.8,34.7
2016-07-31T00:25:00Z,0000380,01000600,-001.42,-000.25,-000.36,0000.27,0000.08,-000.45,0000.06,0000.13,-000.17,27.0,00.6,0678.8,34.7
2016-07-31T00:26:00Z,0000380,01000600,0000.02,-000.21,-000.07,-000.51,0000.30,0000.03,0000.02,-000.06,-000.18,27.1,00.6,0678.8,34.7
2016-07-31T00:27:00Z,0000380,01000600,-000.04,0000.07,-000.52,0000.11,-000.34,-000.33,0000.03,-000.24,0000.09,27.1,00.6,0678.8,34.7
2016-07-31T00:28:00Z,0000380,01000600,-000.23,-000.28,-000.09,-000.25,-000.25,-000.39,-000.01,0000.09,-000.07,27.1,00.6,0678.8,34.7
2016-07-31T00:29:00Z,0000380,01000600,-000.13,0000.12,-000.07,0000.51,-000.19,-000.08,-000.11,0000.10,0000.06,27.1,00.6,0678.8,34.7
2016-07-31T00:30:00Z,0000380,01000600,0000.36,-000.23,-000.28,0000.08,-000.47,-000.17,-000.02,-000.13,-000.05,27.1,00.6,0678.8,34.7
2016-07-31T00:31:00Z,0000380,01000600,-000.25,-000.18,-000.09,0000.17,-000.25,-000.14,0000.12,0000.06,0000.15,27.1,00.5,0678.8,34.7
2016-07-31T00:32:00Z,0000380,01000600,-000.36,-000.40,-000.19,-000.28,0000.12,-000.08,-000.07,-000.00,-000.08,27.1,00.5,0678.8,34.7
2016-07-31T00:33:00Z,0000380,01000600,0000.72,-000.60,-000.10,0000.19,-000.03,-000.30,-000.00,0000.02,-000.01,27.1,00.6,0678.8,34.7
2016-07-31T00:34:00Z,0000380,01000600,-000.59,0000.25,-000.41,0000.61,0000.00,-000.36,0000.12,0000.09,-000.19,27.1,00.6,0678.8,34.7
2016-07-31T00:35:00Z,0000380,01000600,0000.18,0000.23,-000.41,-000.97,0000.03,-000.11,0000.08,-000.08,0000.23,27.1,00.5,0678.8,34.7
2016-07-31T00:36:00Z,0000380,01000600,-000.43,0000.02,-000.36,0000.59,-000.03,-000.53,-000.09,-000.04,-000.10,27.1,00.4,0678.8,34.7
2016-07-31T00:37:00Z,0000380,01000600,0000.39,-000.63,-000.26,0000.28,-000.30,-000.17,-000.07,-000.05,0000.17,27.1,00.5,0678.8,34.7
2016-07-31T00:38:00Z,0000380,01000600,0000.04,-000.12,0000.12,-000.09,-000.51,-000.09,0000.00,0000.06,-000.44,27.1,00.4,0678.8,34.7
2016-07-31T00:39:00Z,0000380,01000600,0000.20,0000.16,-000.26,0000.19,0000.14,0000.00,-000.07,0000.07,0000.29,27.1,00.4,0678.8,34.7
2016-07-31T00:40:00Z,0000380,01000600,-000.02,-000.35,-000.33,0000.66,0000.17,-000.27,0000.01,-000.07,-000.04,27.1,00.4,0678.8,34.7
2016-07-31T00:41:00Z,0000380,01000600,-000.54,0000.11,-000.41,0000.34,-000.25,-000.31,-000.02,0000.01,-000.06,27.1,00.3,0678.8,34.7
2016-07-31T00:42:00Z,0000380,01000600,-000.56,-000.48,-000.07,-000.30,-000.19,-000.08,0000.06,-000.04,-000.07,27.1,00.3,0678.8,34.7
2016-07-31T00:43:00Z,0000380,01000600,-000.09,-000.48,-000.07,0000.47,-000.19,-000.30,0000.13,0000.06,0000.23,27.1,00.3,0678.8,34.7
2016-07-31T00:44:00Z,0000380,01000600,-000.11,0000.04,-000.28,0000.22,0000.00,-000.36,-000.10,-000.09,-000.08,27.1,00.3,0678.8,34.7
2016-07-31T00:45:00Z,0000380,01000600,-000.59,-000.67,-000.10,-000.16,-000.02,-000.16,0000.06,0000.00,0000.16,27.1,00.4,0678.8,34.7
2016-07-31T00:46:00Z,0000380,01000600,0000.52,-000.19,-000.09,-000.50,-000.16,-000.19,0000.08,0000.19,-000.16,27.1,00.4,0678.8,34.7
2016-07-31T00:47:00Z,0000380,01000600,0000.31,-000.16,-000.19,0000.25,-000.03,-000.34,-000.09,-000.09,0000.14,27.0,00.3,0678.8,34.7
2016-07-31T00:48:00Z,0000380,01000600,0000.74,0000.14,0000.07,0000.19,0000.02,-000.27,-000.03,-000.07,-000.05,27.1,00.3,0678.8,34.7
2016-07-31T00:49:00Z,0000380,01000600,0000.65,-000.19,0000.07,-000.58,-000.70,0000.03,0000.02,0000.09,-000.08,27.1,00.3,0678.8,34.7
2016-07-31T00:50:00Z,0000380,01000600,-000.97,0000.25,0000.09,-000.11,0000.02,0000.05,0000.10,-000.01,0000.14,27.0,00.4,0678.8,34.7
2016-07-31T00:51:00Z,0000380,01000600,-000.27,0000.07,-000.14,-000.12,-000.20,0000.25,-000.01,0000.12,-000.14,27.0,00.4,0678.8,34.7
2016-07-31T00:52:00Z,0000380,01000600,0000.23,-000.12,-000.46,-000.28,-000.12,-000.22,0000.16,0000.05,0000.04,27.0,00.3,0678.8,34.7
2016-07-31T00:53:00Z,0000380,01000600,-000.39,-000.23,-000.05,0000.09,-000.14,0000.02,-000.11,-000.15,0000.18,27.0,00.4,0678.8,34.7
2016-07-31T00:54:00Z,0000380,01000600,0000.04,0000.02,-000.34,-000.09,-000.16,-000.58,0000.01,-000.01,-000.28,27.0,00.3,0678.8,34.7
2016-07-31T00:55:00Z,0000380,01000600,0000.57,-000.18,0000.24,-000.16,-000.05,-000.30,0000.01,0000.05,0000.11,27.0,00.3,0678.8,34.7
2016-07-31T00:56:00Z,0000380,01000600,0000.54,0000.19,-000.03,0000.27,-000.23,-000.58,-000.12,-000.08,-000.15,27.0,00.3,0678.8,34.7
2016-07-31T00:57:00Z,0000380,40000600,,,,,,,,,,,,0678.8,34.7
2016-07-31T00:58:00Z,0000380,61000600,,,,,,,,,,26.8,00.4,0677.8,34.7
2016-07-31T00:59:00Z,0000380,21000600,,,,,,,,,,26.8,00.4,0677.8,34.7
2016-07-31T01:00:00Z,0000380,21000600,,,,,,,,,,26.8,00.3,0677.8,34.7
2016-07-31T01:01:00Z,0000380,21000600,,,,,,,,,,26.8,00.3,0677.8,34.7
2016-07-31T01:02:00Z,0000380,21000600,,,,,,,,,,26.8,00.3,0677.8,34.7
2016-07-31T01:03:00Z,0000380,61000600,,,,,,,,,,26.9,00.3,0677.8,34.7
2016-07-31T01:04:00Z,0000380,41000600,-000.63,-000.21,0000.50,-000.75,0000.17,0000.25,-000.07,-000.04,0000.19,27.0,00.2,0678.7,34.7
2016-07-31T01:05:00Z,0000380,01000600,0000.32,-000.58,0000.21,-000.11,-000.02,0000.42,0000.10,0000.00,-000.35,27.0,00.2,0678.8,34.7
2016-07-31T01:06:00Z,0000380,01000600,-000.59,0000.02,0000.22,-000.75,-000.08,-000.06,0000.09,-000.02,0000.19,27.0,00.1,0678.8,34.7
2016-07-31T01:07:00Z,0000380,01000600,0000.05,0000.05,0000.48,0000.03,0000.03,0000.47,-000.04,0000.05,-000.06,27.0,00.1,0678.7,34.7
2016-07-31T01:08:00Z,0000380,01000600,-000.31,0000.30,-000.15,0000.31,0000.02,-000.08,-000.00,0000.07,0000.18,27.0,00.1,0678.8,34.7
2016-07-31T01:09:00Z,0000380,01000600,-000.71,0000.49,0000.20,-000.12,0000.11,-000.22,-000.10,-000.05,-000.11,26.9,00.1,0678.7,34.7
2016-07-31T01:10:00Z,0000380,01000600,0000.22,-000.05,0000.80,0000.19,0000.17,0000.50,0000.14,-000.07,-000.12,26.9,00.2,0678.7,34.7
2016-07-31T01:11:00Z,0000380,01000600,0000.39,-000.60,-000.02,0000.78,-000.30,0000.33,0000.05,0000.05,-000.04,26.9,00.1,0678.7,34.7
2016-07-31T01:12:00Z,0000380,01000600,0000.27,-000.45,-000.33,0000.09,0000.02,-000.06,-000.06,0000.10,0000.16,26.9,00.1,0678.7,34.7
2016-07-31T01:13:00Z,0000380,01000600,0000.32,0001.00,0000.85,0000.34,-000.08,0000.42,-000.04,0000.01,-000.03,26.9,00.2,0678.7,34.7
2016-07-31T01:14:00Z,0000380,01000600,-000.23,0000.07,0000.00,-000.16,-000.16,0000.03,0000.01,-000.21,0000.15,26.9,00.1,0678.7,34.7
2016-07-31T01:15:00Z,0000380,01000600,0000.44,-000.08,0000.38,-000.27,-000.19,-000.02,-000.01,0000.16,-000.01,26.9,00.1,0678.7,34.7
2016-07-31T01:16:00Z,0000380,01000600,-000.24,-000.66,0000.56,0000.05,0000.26,0000.25,-000.02,-000.13,-000.32,26.9,00.1,0678.7,34.7
2016-07-31T01:17:00Z,0000380,01000600,-000.25,-000.23,0000.57,0000.12,0000.14,-000.09,0000.14,0000.06,-000.09,26.9,00.1,0678.7,34.7
2016-07-31T01:18:00Z,0000380,01000600,0000.38,0000.26,0000.62,-000.17,-000.22,0000.02,-000.17,0000.09,0000.22,26.9,00.1,0678.7,34.7
2016-07-31T01:19:00Z,0000380,01000600,-000.06,0000.43,0000.58,0000.75,-000.09,0000.25,0000.14,-000.04,0000.00,26.9,00.1,0678.7,34.7
2016-07-31T01:20:00Z,0000380,01000600,0000.61,0000.82,-000.17,-000.03,-000.43,0000.14,0000.17,0000.16,0000.22,26.8,00.1,0678.7,34.7
2016-07-31T01:21:00Z,0000380,01000600,0000.90,0000.02,0000.37,0000.25,0000.31,0000.11,-000.12,0000.00,-000.13,26.8,00.1,0678.7,34.7
2016-07-31T01:22:00Z,0000380,01000600,0000.13,-000.63,0000.59,0000.28,-000.36,0000.53,0000.02,-000.10,0000.08,26.8,00.1,0678.7,34.7
2016-07-31T01:23:00Z,0000380,01000600,0000.18,-000.25,0000.32,0000.08,0000.00,0000.16,0000.10,0000.16,-000.09,26.8,00.0,0678.7,34.7
2016-07-31T01:24:00Z,0000380,01000600,-000.84,0000.07,0000.33,0000.11,-000.40,-000.02,-000.08,-000.08,0000.13,26.8,00.0,0678.8,34.7
2016-07-31T01:25:00Z,0000380,01000600,0000.21,-000.02,-000.17,-000.20,-000.11,-000.06,0000.14,-000.06,-000.05,26.8,00.1,0678.7,34.7
2016-07-31T01:26:00Z,0000380,01000600,-000.23,-000.16,-000.15,0000.20,-000.34,0000.14,0000.03,0000.05,0000.12,26.8,00.0,0678.7,34.7
2016-07-31T01:27:00Z,0000380,01000600,-000.77,-000.23,0000.77,0000.47,0000.42,0000.30,0000.02,0000.02,-000.18,26.8,00.1,0678.7,34.7
2016-07-31T01:28:00Z,0000380,01000600,-000.16,-000.46,0000.14,-000.39,-000.51,0000.41,-000.07,0000.02,-000.09,26.8,00.0,0678.7,34.7
2016-07-31T01:29:00Z,0000380,01000600,0000.00,-000.19,-000.07,-000.48,-000.08,-000.17,-000.12,0000.09,0000.24,26.8,00.0,0678.7,34.7
2016-07-31T01:30:00Z,0000380,01000600,0000.02,0000.16,0000.46,-000.16,-000.05,0000.14,0000.11,-000.09,-000.14,26.8,00.1,0678.7,34.7
2016-07-31T01:31:00Z,0000380,01000600,0000.05,-000.19,-000.07,0000.33,0000.19,0000.02,0000.01,-000.10,-000.02,26.8,00.1,0678.7,34.7
2016-07-31T01:32:00Z,0000380,01000600,0000.56,-000.47,-000.04,-000.37,-000.11,-000.14,0000.01,0000.11,-000.21,26.8,00.1,0678.7,34.7
2016-07-31T01:33:00Z,0000380,01000600,0000.51,0000.13,0000.44,0000.48,0000.57,0000.20,-000.03,0000.06,0000.32,26.8,00.1,0678.7,34.7
2016-07-31T01:34:00Z,0000380,01000600,0000.40,0000.23,0000.44,0000.34,-000.29,-000.23,0000.07,-000.09,-000.01,26.8,00.1,0678.7,34.7
2016-07-31T01:35:00Z,0000380,01000600,-000.41,0000.15,0000.56,-000.14,-000.54,0000.30,-000.07,0000.02,-000.19,26.8,00.1,0678.7,34.7
2016-07-31T01:36:00Z,0000380,01000600,0000.52,-000.08,0000.25,-000.34,-000.11,0000.42,0000.02,-000.00,-000.01,26.8,00.1,0678.7,34.7
2016-07-31T01:37:00Z,0000380,01000600,0000.44,0000.13,0000.58,0000.09,-000.22,-000.03,0000.09,0000.03,0000.23,26.8,00.1,0678.7,34.7
2016-07-31T01:38:00Z,0000380,01000600,0000.25,-000.02,0000.36,0000.72,-000.47,0000.20,-000.01,-000.09,-000.15,26.8,00.0,0678.7,34.7
2016-07-31T01:39:00Z,0000380,01000600,0000.14,0000.20,0000.17,0000.05,0000.25,0000.42,0000.02,0000.07,0000.04,26.8,00.0,0678.7,34.7
2016-07-31T01:40:00Z,0000380,01000600,0000.02,-000.11,0000.10,-000.37,0000.19,0000.16,-000.11,-000.09,-000.16,26.8,00.0,0678.7,34.7
2016-07-31T01:41:00Z,0000380,01000600,0000.01,-000.04,0000.59,-000.02,0000.14,0000.20,0000.15,0000.13,0000.04,26.8,00.1,0678.7,34.7
2016-07-31T01:42:00Z,0000380,01000600,-000.46,0000.38,0000.35,-000.19,0000.19,0000.08,-000.00,0000.01,0000.15,26.8,00.1,0678.7,34.7
2016-07-31T01:43:00Z,0000380,01000600,0000.32,-000.14,0000.57,-000.02,0000.05,0000.09,-000.10,0000.03,-000.11,26.8,00.1,0678.7,34.7
2016-07-31T01:44:00Z,0000380,01000600,-000.08,0000.10,0000.32,0000.59,-000.51,-000.12,0000.26,0000.11,0000.02,26.8,00.0,0678.7,34.7
2016-07-31T01:45:00Z,0000380,01000600,-000.52,0000.15,0000.56,-000.33,0000.08,-000.33,-000.15,-000.11,-000.00,26.8,00.0,0678.7,34.7
2016-07-31T01:46:00Z,0000380,01000600,-000.56,-000.35,0000.05,0000.25,-000.11,0000.36,0000.05,0000.10,0000.08,26.7,00.1,0678.7,34.7
2016-07-31T01:47:00Z,0000380,01000600,0000.38,-000.25,0000.07,0000.03,0000.08,0000.09,-000.23,-000.09,-000.07,26.7,00.0,0678.7,34.7
2016-07-31T01:48:00Z,0000380,01000600,-000.16,-000.04,0000.33,-000.37,-000.31,0000.19,0000.20,-000.23,-000.10,26.7,00.0,0678.7,34.7
2016-07-31T01:49:00Z,0000380,01000600,0000.52,-000.19,0000.71,-000.19,0000.11,0000.31,-000.07,0000.21,0000.12,26.7,00.1,0678.7,34.7
2016-07-31T01:50:00Z,0000380,01000600,-000.59,-000.25,0000.28,-000.31,-000.14,0000.33,-000.04,-000.13,-000.24,26.7,00.0,0678.7,34.7
2016-07-31T01:51:00Z,0000380,01000600,0001.18,0000.17,0000.11,0000.11,0000.25,-000.02,0000.09,0000.11,0000.38,26.7,00.0,0678.7,34.7
2016-07-31T01:52:00Z,0000380,01000600,0000.26,0000.25,0001.20,0000.48,-000.02,0000.27,-000.10,0000.03,-000.06,26.7,00.0,0678.7,34.7
2016-07-31T01:53:00Z,0000380,01000600,0000.44,-000.31,-000.25,-000.47,-000.36,0000.09,0000.10,-000.14,-000.24,26.7,00.0,0678.7,34.7
2016-07-31T01:54:00Z,0000380,01000600,-000.12,0000.18,0000.35,-000.36,0000.03,-000.19,-000.05,0000.08,0000.32,26.7,00.0,0678.7,34.7
2016-07-31T01:55:00Z,0000380,01000600,-000.47,0000.86,-000.17,-000.14,0000.05,-000.66,0000.14,0000.08,-000.05,26.7,00.0,0678.7,34.7
2016-07-31T01:56:00Z,0000380,01000600,-000.16,-000.60,-000.04,-000.08,0000.02,-000.23,-000.12,0000.00,-000.08,26.7,00.0,0678.7,34.7
2016-07-31T01:57:00Z,0000380,41000600,,,,,,,,,,,,0678.8,34.7
2016-07-31T01:58:00Z,0000380,61000600,,,,,,,,,,26.6,00.0,0677.6,34.7
2016-07-31T01:59:00Z,0000380,21000600,,,,,,,,,,26.7,00.0,0677.6,34.7
2016-07-31T02:00:00Z,0000380,21000600,,,,,,,,,,26.7,00.0,0677.6,34.7
2016-07-31T02:01:00Z,0000380,21000600,,,,,,,,,,26.7,00.0,0677.6,34.7
2016-07-31T02:02:00Z,0000380,21000600,,,,,,,,,,26.7,00.0,0677.6,34.7
2016-07-31T02:03:00Z,0000380,61000600,,,,,,,,,,26.7,00.0,0677.6,34.7
2016-07-31T02:04:00Z,0000380,41000600,0000.58,0000.19,-000.29,-000.25,0000.26,-000.06,0000.14,-000.12,0000.26,26.7,00.0,0678.5,34.7
2016-07-31T02:05:00Z,0000380,01000600,-000.08,0000.16,0000.24,-000.14,-000.20,0000.05,-000.08,-000.00,0000.24,26.7,00.0,0678.6,34.7
2016-07-31T02:06:00Z,0000380,01000600,0000.23,-000.09,-000.16,0000.73,0000.19,0000.08,0000.12,0000.09,-000.10,26.7,00.0,0678.6,34.7
2016-07-31T02:07:00Z,0000380,01000600,-000.02,0000.20,-000.23,0000.45,0000.29,-000.22,-000.06,0000.07,-000.19,26.7,00.0,0678.6,34.7
2016-07-31T02:08:00Z,0000380,01000600,-000.18,0000.00,-000.23,0000.19,-000.06,0000.16,-000.01,-000.15,0000.08,26.7,00.0,0678.6,34.7
2016-07-31T02:09:00Z,0000380,01000600,-000.77,-000.09,0000.09,-000.09,0000.06,0000.14,0000.09,0000.16,0000.28,26.7,00.0,0678.6,34.7
2016-07-31T02:10:00Z,0000380,01000600,0000.51,0000.09,0000.33,0000.12,-000.17,0000.27,-000.01,0000.13,-000.05,26.7,00.0,0678.6,34.7
2016-07-31T02:11:00Z,0000380,01000600,-001.49,0000.18,-000.09,0000.25,0000.31,-000.17,-000.02,-000.07,-000.01,26.7,00.0,0678.6,34.7
2016-07-31T02:12:00Z,0000380,01000600,0000.14,-000.18,-000.33,0000.31,0000.06,-000.14,-000.07,-000.15,-000.31,26.7,00.0,0678.6,34.7
2016-07-31T02:13:00Z,0000380,01000600,0000.05,-000.32,-000.53,0000.20,0000.06,-000.14,0000.03,-000.04,0000.13,26.7,00.0,0678.6,34.7
2016-07-31T02:14:00Z,0000380,01000600,-000.30,-000.33,-000.12,-000.36,0000.12,0000.14,-000.02,0000.14,0000.19,26.7,00.0,0678.6,34.7
2016-07-31T02:15:00Z,0000380,01000600,-000.20,0000.19,0000.40,-000.72,-000.09,0000.05,-000.02,-000.07,-000.23,26.7,00.0,0678.6,34.6
2016-07-31T02:16:00Z,0000380,01000600,-000.71,0000.34,0000.44,0000.79,0000.02,-000.25,0000.09,0000.03,0000.34,26.7,00.0,0678.6,34.6
2016-07-31T02:17:00Z,0000380,01000600,-000.36,-000.14,0000.43,-000.22,0000.43,-000.02,0000.01,0000.07,-000.55,26.7,00.0,0678.6,34.6
2016-07-31T02:18:00Z,0000380,01000600,-000.46,0000.22,0000.31,-000.28,0000.45,-000.11,-000.10,0000.00,0000.31,26.7,00.0,0678.6,34.6
2016-07-31T02:19:00Z,0000380,01000600,-000.59,0000.29,-000.08,0000.12,0000.50,0000.27,0000.11,-000.00,-000.01,26.6,00.0,0678.5,34.6
2016-07-31T02:20:00Z,0000380,01000600,-000.11,-000.35,0000.38,-000.06,-000.17,0000.39,0000.01,0000.04,-000.17,26.6,00.0,0678.5,34.6
2016-07-31T02:21:00Z,0000380,01000600,-000.11,0000.49,0000.55,0000.05,0000.12,0000.39,0000.02,0000.08,0000.22,26.6,00.0,0678.5,34.6
2016-07-31T02:22:00Z,0000380,01000600,0000.07,-000.07,-000.02,-000.20,0000.08,0000.00,0000.04,-000.06,-000.23,26.6,00.0,0678.5,34.6
2016-07-31T02:23:00Z,0000380,01000600,-000.14,0000.09,0000.28,-000.61,0000.54,0000.34,0000.30,0000.04,0000.24,26.6,00.0,0678.5,34.6
2016-07-31T02:24:00Z,0000380,01000600,-000.65,-000.19,0000.45,0000.19,0000.11,-000.03,-000.27,-000.05,-000.13,26.6,00.0,0678.5,34.6
2016-07-31T02:25:00Z,0000380,01000600,0000.11,-000.49,0000.38,-000.02,0000.29,0000.06,0000.04,0000.05,-000.03,26.6,00.0,0678.5,34.6
2016-07-31T02:26:00Z,0000380,01000600,-000.07,-000.40,0000.12,0000.14,0000.31,-000.25,0000.22,-000.06,0000.28,26.6,00.0,0678.5,34.6
2016-07-31T02:27:00Z,0000380,01000600,0000.05,-000.72,0000.43,0000.44,-000.22,0000.14,-000.13,0000.12,-000.03,26.5,00.0,0678.4,34.6
2016-07-31T02:28:00Z,0000380,01000600,0000.07,0000.23,-000.05,-000.73,0000.23,0000.12,-000.12,0000.00,-000.24,26.5,00.0,0678.4,34.6
2016-07-31T02:29:00Z,0000380,01000600,-000.34,-000.04,0000.62,0000.28,0000.33,-000.22,0000.18,-000.10,0000.22,26.5,00.0,0678.4,34.6
2016-07-31T02:30:00Z,0000380,01000600,-000.91,-000.07,0000.33,0000.31,-000.02,0000.41,-000.02,0000.01,-000.25,26.5,00.0,0678.4,34.6
2016-07-31T02:31:00Z,0000380,01000600,0000.50,-000.33,0000.28,-000.05,-000.54,-000.17,0000.16,0000.15,0000.27,26.5,00.0,0678.4,34.6
2016-07-31T02:32:00Z,0000380,01000600,-000.54,-000.51,-000.02,-000.44,0000.14,-000.31,-000.12,-000.01,-000.16,26.5,00.1,0678.4,34.6
2016-07-31T02:33:00Z,0000380,01000600,0000.29,-000.09,0000.14,0000.12,0000.09,-000.02,0000.02,0000.08,0000.29,26.5,00.1,0678.4,34.6
2016-07-31T02:34:00Z,0000380,01000600,0000.48,-000.33,0000.00,-000.06,0000.02,-000.23,0000.00,0000.13,-000.10,26.5,00.1,0678.4,34.6
2016-07-31T02:35:00Z,0000380,01000600,-001.00,-000.28,-000.22,0000.44,-000.12,-000.27,0000.04,0000.04,0000.38,26.5,00.1,0678.4,34.6
2016-07-31T02:36:00Z,0000380,01000600,0000.48,0000.32,0000.10,0000.56,0000.00,0000.11,-000.06,-000.08,-000.39,26.5,00.1,0678.4,34.6
2016-07-31T02:37:00Z,0000380,01000600,-000.97,-000.12,0000.14,0000.03,-000.03,0000.33,0000.05,0000.10,0000.17,26.5,00.1,0678.3,34.6
2016-07-31T02:38:00Z,0000380,01000600,-000.34,-000.28,0000.34,-000.06,0000.29,0000.09,0000.02,-000.11,0000.07,26.5,00.1,0678.3,34.6
2016-07-31T02:39:00Z,0000380,01000600,0000.09,-000.07,0000.46,-000.47,-000.26,-000.03,-000.05,0000.05,-000.38,26.4,00.2,0678.3,34.6
2016-07-31T02:40:00Z,0000380,01000600,-000.32,-000.11,-000.03,-000.67,0000.09,-000.25,0000.10,0000.02,0000.18,26.4,00.2,0678.3,34.6
2016-07-31T02:41:00Z,0000380,01000600,0000.84,-001.07,0000.14,-000.51,0000.54,-000.11,0000.00,0000.10,0000.08,26.4,00.2,0678.3,34.6
2016-07-31T02:42:00Z,0000380,01000600,-000.34,-000.39,0000.41,0000.19,-000.23,0000.16,-000.01,-000.11,0000.07,26.4,00.1,0678.3,34.6
2016-07-31T02:43:00Z,0000380,01000600,-000.72,0000.28,0000.36,-000.51,-000.05,0000.27,0000.01,0000.13,0000.10,26.4,00.2,0678.3,34.6
2016-07-31T02:44:00Z,0000380,01000600,-001.18,-000.44,-000.14,0000.02,0000.12,-000.17,-000.02,-000.23,-000.14,26.4,00.2,0678.3,34.6
2016-07-31T02:45:00Z,0000380,01000600,0000.68,-000.18,0000.19,-000.02,0000.45,-000.09,-000.00,0000.12,0000.02,26.3,00.2,0678.3,34.6
2016-07-31T02:46:00Z,0000380,01000600,-000.86,0000.05,0000.29,-000.50,-000.12,0000.00,0000.07,-000.14,-000.01,26.3,00.2,0678.3,34.6
2016-07-31T02:47:00Z,0000380,01000600,-001.01,0000.85,0000.10,0000.00,0000.28,-000.08,0000.02,0000.12,0000.01,26.4,00.1,0678.2,34.6
2016-07-31T02:48:00Z,0000380,01000600,-000.10,0000.40,0000.22,-000.33,0000.06,0000.05,-000.12,-000.08,-000.07,26.4,00.2,0678.3,34.6
2016-07-31T02:49:00Z,0000380,01000600,-000.06,-000.09,0000.49,0000.08,-000.03,-000.16,-000.00,0000.00,0000.01,26.3,00.1,0678.3,34.6
2016-07-31T02:50:00Z,0000380,01000600,-000.13,-000.37,0000.33,-000.33,0000.53,0000.25,0000.13,0000.13,0000.15,26.3,00.1,0678.2,34.6
2016-07-31T02:51:00Z,0000380,01000600,-001.07,0000.16,-000.31,0000.45,0000.09,0000.09,-000.12,-000.10,-000.19,26.3,00.1,0678.2,34.6
2016-07-31T02:52:00Z,0000380,01000600,-001.02,-000.14,-000.15,0000.05,0000.17,-000.02,0000.04,0000.03,0000.04,26.3,00.2,0678.2,34.6
2016-07-31T02:53:00Z,0000380,01000600,0000.41,-000.30,0000.29,-000.44,0000.22,0000.12,0000.10,0000.11,-000.01,26.3,00.1,0678.2,34.6
2016-07-31T02:54:00Z,0000380,01000600,-000.48,0000.09,-000.09,0000.14,0000.45,-000.02,0000.02,-000.14,-000.22,26.3,00.2,0678.2,34.6
2016-07-31T02:55:00Z,0000380,01000600,0000.38,0000.02,0000.26,0000.26,0000.23,-000.22,-000.12,0000.08,0000.29,26.4,00.2,0678.2,34.6
2016-07-31T02:56:00Z,0000380,01000600,-000.34,-000.14,0000.70,0000.03,0000.45,-000.19,0000.25,0000.03,0000.28,26.4,00.2,0678.2,34.6
2016-07-31T02:57:00Z,0000388,41000608,,,,,,,,,,,,0677.9,34.6
2016-07-31T02:58:00Z,0000388,61000608,,,,,,,,,,26.3,00.0,0677.1,34.6
2016-07-31T02:59:00Z,0000388,21000608,,,,,,,,,,26.3,00.0,0677.1,34.6
2016-07-31T03:00:00Z,0000388,21000608,,,,,,,,,,26.3,00.1,0677.1,34.6
2016-07-31T03:01:00Z,0000388,21000608,,,,,,,,,,26.3,00.1,0677.1,34.6
2016-07-31T03:02:00Z,0000388,21000608,,,,,,,,,,26.3,00.1,0677.1,34.6
2016-07-31T03:03:00Z,0000388,61000608,,,,,,,,,,26.3,00.1,0677.1,34.6
2016-07-31T03:04:00Z,0000388,41000608,0000.20,0000.18,0000.01,-000.08,-000.29,0000.17,-000.01,0000.06,-000.34,26.3,00.2,0677.9,34.6
2016-07-31T03:05:00Z,0000388,01000608,0001.02,0000.18,0001.08,0000.19,0000.76,0000.34,0000.42,0000.04,0000.18,26.3,00.3,0678.0,34.6
2016-07-31T03:06:00Z,0000388,01000608,0000.00,0000.11,0000.00,-000.58,-000.12,-000.31,0000.03,0000.13,0000.14,26.3,00.2,0678.0,34.6
2016-07-31T03:07:00Z,0000388,01000608,0000.43,-000.05,-000.08,-000.02,-000.43,-000.22,0000.01,-000.01,-000.05,26.3,00.2,0678.0,34.6
2016-07-31T03:08:00Z,0000388,01000608,0000.49,0000.18,-000.05,0000.34,-000.02,-000.12,-000.21,-000.00,-000.10,26.3,00.2,0678.0,34.6
2016-07-31T03:09:00Z,0000388,01000608,0000.26,0000.38,0000.36,0000.67,0000.06,0000.00,0000.27,0000.22,0000.52,26.3,00.3,0678.0,34.6
2016-07-31T03:10:00Z,0000388,01000608,-000.12,0000.90,-000.06,0000.25,0000.02,-000.06,-000.02,-000.05,-000.32,26.3,00.2,0678.0,34.6
2016-07-31T03:11:00Z,0000388,01000608,0000.06,-000.04,0000.06,-000.06,-000.09,-000.23,0000.12,-000.09,-000.11,26.3,00.2,0678.0,34.6
2016-07-31T03:12:00Z,0000388,01000608,-000.02,-000.41,-000.07,-000.31,-000.08,0000.06,-000.00,0000.03,0000.02,26.3,00.2,0678.0,34.6